Temp
78 77 73 76 81 81 78 81 80 80 76 76 77 76 76 75 74 75 74 73 72 74 75 76 77 76 74 74 75 75 73 72 73
74 74 69 69 77 76 74 81 80 80 78 77 77 78 77 76 75 75 75 73 74 74 73 76 74 74 74 74 75 75 73 73 73
69 71 76 74 74 75 79 80 82 79 78 76 78 79 78 78 77 77 76 75 74 74 75 74 74 73 72 74 75 75 73 73 73
69 74 76 75 73 75 73 78 82 78 76 77 76 76 77 78 78 78 76 76 76 76 76 75 74 74 74 71 74 73 73 73 74
69 71 73 75 73 71 72 71 70 68 67 69 71 72 75 76 75 78 76 77 77 77 76 75 77 74 74 73 74 74 75 75 78
68 70 70 71 71 69 69 71 70 68 67 66 69 69 70 74 76 76 78 78 79 77 74 76 77 75 75 74 75 74 73 74 74
67 68 68 68 67 68 69 70 70 70 69 70 71 72 70 72 76 76 76 77 77 79 77 75 76 76 76 75 76 76 75 74 73
70 69 69 69 67 66 67 69 70 70 71 71 71 71 72 70 76 75 76 75 76 76 78 77 77 76 75 75 76 77 76 75 73
68 68 70 70 70 68 68 69 69 71 70 70 71 71 72 72 73 74 75 76 76 75 75 76 77 76 76 74 78 74 72 76 74
67 68 68 69 69 69 68 67 69 68 69 69 70 70 71 71 71 69 69 73 75 74 75 74 74 75 76 74 76 71 69 72 76
67 69 70 69 68 68 69 70 69 68 69 68 67 68 69 70 69 68 67 67 68 70 72 72 71 72 72 72 74 68 68 69 75
65 65 66 67 67 67 67 67 68 67 67 67 67 67 67 69 70 69 67 66 65 66 67 68 69 69 67 67 67 65 63 65 70
66 67 67 67 69 68 66 67 67 65 65 64 65 67 66 68 68 69 68 67 64 64 65 67 68 68 68 65 67 64 62 64 70
64 65 67 67 66 65 65 66 66 64 64 64 67 67 67 66 67 67 68 66 62 61 62 64 65 67 69 68 68 67 61 60 68
66 65 66 67 64 64 66 65 63 63 62 66 66 66 66 67 65 66 68 65 64 62 61 61 62 62 63 65 68 62 61 59 60
63 64 64 66 67 66 64 64 63 61 65 64 64 63 68 69 66 67 65 64 64 62 61 60 61 62 62 64 68 64 60 59 59
61 63 63 64 62 61 61 62 63 62 65 66 63 63 64 66 67 67 66 64 64 65 65 66 64 62 61 63 63 62 63 62 63
61 62 63 63 60 60 62 64 62 64 65 63 62 63 64 65 66 65 64 61 62 62 65 65 67 67 67 64 64 64 59 59 62
63 60 61 59 59 59 61 61 62 64 64 61 61 62 64 64 65 66 60 60 60 54 54 53 51 52 60 66 59 54 51 50 51
61 59 59 59 60 60 59 59 60 64 64 61 61 60 62 63 62 64 59 59 59 59 58 51 49 48 48 48 50 49 48 47 52
MSLP
1007.14 1008.22 1009.01 1009.96 1008.68 1008.21 1008.27 1008.92 1009.04 1009.55 1010.54 1011.24 1011.68 1011.91 1012.18 1012.75 1013.22 1013.73 1014.13 1014.38 1014.44 1014.55 1014.74 1014.88 1015.08 1015.36 1015.34 1015.50 1015.50 1015.70 1016.01 1016.52 1016.81
1007.53 1009.17 1010.74 1010.51 1010.82 1009.60 1009.13 1008.90 1009.27 1009.28 1009.95 1010.60 1011.00 1011.09 1011.56 1011.81 1012.47 1012.81 1013.22 1013.71 1013.98 1014.05 1014.16 1014.42 1014.59 1014.76 1015.08 1015.19 1015.28 1015.40 1015.79 1016.07 1016.24
1008.89 1010.19 1011.29 1013.03 1011.63 1009.86 1009.09 1008.97 1009.27 1009.87 1010.42 1010.92 1010.73 1010.65 1010.52 1010.95 1011.21 1011.99 1012.38 1012.83 1013.42 1013.56 1013.57 1013.80 1014.08 1014.37 1014.71 1014.85 1014.94 1015.15 1015.53 1015.78 1015.97
1010.03 1010.31 1011.54 1012.15 1010.74 1010.18 1009.48 1008.43 1008.25 1009.19 1009.02 1009.99 1011.13 1010.93 1011.01 1011.50 1010.98 1011.22 1011.81 1012.04 1012.37 1012.81 1013.06 1013.16 1013.47 1013.76 1014.10 1014.50 1014.74 1014.80 1015.18 1015.42 1015.68
1011.08 1010.96 1011.57 1011.51 1011.64 1010.82 1010.43 1010.04 1009.96 1009.21 1010.39 1011.87 1011.27 1010.78 1010.03 1011.44 1011.56 1011.30 1011.37 1011.63 1011.63 1012.02 1012.33 1012.56 1012.74 1013.06 1013.44 1013.72 1013.99 1014.37 1014.66 1015.01 1015.14
1011.15 1011.30 1011.67 1011.79 1011.62 1011.26 1011.07 1010.97 1011.15 1011.69 1012.02 1011.62 1012.18 1010.67 1010.60 1010.94 1011.31 1011.01 1010.87 1010.94 1010.95 1011.29 1011.64 1011.87 1012.08 1012.41 1012.70 1013.04 1013.29 1013.63 1014.03 1014.28 1014.59
1011.38 1011.64 1012.10 1012.25 1012.17 1011.72 1011.65 1011.27 1011.44 1012.57 1012.39 1012.31 1011.79 1009.78 1009.60 1010.58 1010.41 1010.10 1009.98 1009.84 1010.03 1010.32 1010.76 1011.13 1011.23 1011.39 1011.70 1012.08 1012.40 1012.77 1013.10 1013.49 1013.78
1011.71 1011.67 1011.68 1011.80 1012.06 1012.47 1012.08 1011.67 1011.64 1011.73 1012.22 1011.99 1011.74 1011.48 1010.80 1009.83 1009.73 1009.27 1008.95 1009.39 1009.41 1009.38 1009.81 1009.82 1009.86 1010.41 1010.73 1011.07 1011.45 1011.78 1012.17 1012.55 1012.86
1011.93 1011.90 1011.87 1011.85 1012.01 1012.25 1012.26 1011.96 1011.56 1011.39 1011.53 1011.70 1011.53 1011.13 1010.54 1009.79 1008.37 1009.06 1008.67 1008.25 1008.52 1008.62 1008.34 1008.66 1008.92 1009.25 1009.65 1010.16 1010.39 1010.64 1011.15 1011.69 1012.19
1012.16 1012.02 1011.90 1011.87 1011.94 1011.90 1011.82 1011.83 1011.62 1011.52 1011.19 1010.93 1010.97 1010.80 1010.23 1009.69 1009.37 1009.20 1009.06 1008.65 1007.80 1007.78 1007.37 1007.59 1007.81 1008.48 1008.90 1009.21 1009.42 1009.86 1010.59 1011.19 1011.62
1012.53 1012.18 1012.01 1011.98 1011.93 1011.82 1011.66 1011.32 1011.09 1010.89 1010.64 1010.27 1009.95 1009.91 1010.17 1009.93 1009.56 1009.34 1008.96 1008.70 1008.81 1008.40 1007.07 1007.71 1008.12 1007.69 1007.94 1008.75 1008.95 1009.29 1009.71 1010.35 1010.87
1012.95 1012.77 1012.54 1012.35 1012.14 1011.85 1011.51 1011.32 1011.11 1011.07 1010.86 1010.50 1010.46 1009.88 1009.45 1009.26 1009.00 1008.78 1008.52 1008.54 1008.62 1008.51 1008.38 1007.46 1007.27 1007.58 1007.22 1008.74 1009.89 1010.19 1010.43 1011.06 1010.79
1012.92 1012.74 1012.49 1012.19 1011.81 1011.48 1011.25 1010.92 1010.68 1010.62 1010.66 1010.68 1010.44 1009.96 1009.52 1008.81 1008.49 1008.43 1008.24 1008.10 1008.35 1008.29 1008.05 1008.11 1007.54 1007.21 1005.51 1007.90 1009.82 1009.44 1009.46 1009.56 1010.51
1012.50 1012.35 1012.13 1011.78 1011.54 1011.44 1011.11 1010.70 1010.52 1010.52 1010.29 1010.00 1009.41 1009.22 1009.01 1008.71 1008.32 1008.01 1007.76 1007.77 1008.00 1008.14 1008.25 1008.17 1007.99 1007.63 1007.00 1006.67 1006.86 1006.78 1006.71 1007.90 1009.15
1012.39 1012.06 1011.65 1011.41 1011.16 1010.93 1010.48 1010.33 1010.28 1010.12 1009.82 1009.34 1009.11 1008.67 1008.36 1008.13 1007.88 1007.68 1007.45 1007.50 1007.53 1007.64 1007.72 1008.07 1008.08 1008.10 1007.56 1007.10 1006.62 1007.02 1007.74 1007.99 1008.57
1012.00 1011.52 1011.13 1010.76 1010.61 1010.35 1010.00 1009.71 1009.56 1009.48 1009.03 1008.73 1008.50 1008.24 1007.86 1007.50 1007.19 1007.07 1006.93 1006.98 1006.98 1007.10 1007.01 1007.24 1007.22 1007.21 1007.32 1006.59 1006.26 1007.02 1007.46 1008.32 1008.46
1011.56 1011.01 1010.58 1010.23 1009.97 1009.72 1009.45 1009.12 1008.84 1008.55 1008.28 1007.92 1007.78 1007.60 1007.34 1006.90 1006.48 1006.28 1006.21 1006.15 1006.12 1006.07 1006.11 1006.05 1006.03 1005.78 1005.63 1005.31 1005.37 1006.20 1007.19 1007.66 1007.67
1010.84 1010.33 1009.90 1009.66 1009.39 1009.15 1008.77 1008.39 1008.06 1007.70 1007.38 1007.13 1007.00 1006.78 1006.54 1006.20 1005.84 1005.50 1005.33 1005.20 1005.20 1005.09 1004.93 1004.86 1004.75 1004.63 1004.55 1004.64 1004.77 1005.14 1005.53 1005.50 1006.54
1010.35 1009.96 1009.50 1009.19 1008.91 1008.56 1008.05 1007.69 1007.37 1006.95 1006.57 1006.43 1006.24 1006.02 1005.64 1005.31 1004.98 1004.61 1004.47 1004.44 1004.41 1004.32 1004.30 1003.98 1004.18 1003.96 1004.05 1003.65 1003.70 1004.35 1004.46 1004.29 1004.58
1010.24 1009.79 1009.25 1008.71 1008.15 1007.65 1007.37 1007.09 1006.70 1005.95 1005.57 1005.51 1005.28 1005.09 1004.72 1004.35 1004.11 1003.88 1003.90 1003.81 1004.08 1003.98 1003.64 1003.61 1003.70 1003.80 1003.70 1004.05 1004.41 1004.86 1004.31 1003.14 1002.72
Wind_Speed
27 24 17 14 2 6 10 14 15 17 15 14 14 14 13 10 10 7 7 8 5 6 7 6 7 8 7 8 8 6 6 4 4
24 21 23 26 26 6 7 9 14 17 16 14 15 16 12 12 11 11 10 9 7 6 5 6 8 8 9 8 8 8 7 5 6
17 14 19 13 11 10 9 4 6 5 4 7 11 12 13 12 13 13 11 9 9 9 8 7 7 8 8 8 9 9 8 6 5
11 10 9 6 11 14 11 6 11 6 11 9 6 6 6 9 11 12 11 11 11 10 9 8 9 9 8 9 9 9 8 7 7
8 9 5 9 8 9 11 9 8 8 10 7 4 6 6 6 9 10 11 12 12 11 12 10 11 10 9 9 10 10 11 10 10
5 7 7 6 6 7 7 6 4 4 4 7 7 8 9 11 16 11 14 14 13 12 12 12 12 10 11 11 11 10 10 11 10
5 5 6 5 5 7 6 6 6 6 3 6 6 7 12 15 16 13 14 15 14 14 12 12 12 12 12 12 12 13 13 12 10
5 6 7 8 7 4 2 4 5 3 4 2 3 8 14 18 17 13 13 12 13 13 13 14 14 13 12 12 12 10 12 11 10
6 6 6 7 5 2 2 2 2 4 2 3 4 6 6 6 7 8 11 12 12 14 16 16 13 14 14 13 10 14 16 14 10
5 3 3 5 5 5 4 2 3 3 6 4 2 2 7 7 6 6 6 10 12 14 15 12 15 14 13 13 13 16 16 17 10
6 5 6 7 6 7 7 5 5 4 4 7 7 6 2 3 3 4 6 6 5 8 6 5 8 10 8 7 7 12 17 16 13
5 6 5 4 5 5 5 6 7 6 6 6 5 8 8 5 3 5 6 5 6 4 3 0 3 1 8 6 5 7 5 7 8
5 5 5 7 8 4 5 6 5 6 7 6 7 7 9 8 5 4 6 6 4 2 2 5 4 6 10 6 20 17 16 11 8
4 5 7 7 6 6 7 7 6 6 7 7 7 6 7 7 7 7 6 4 3 4 5 5 6 7 6 12 19 17 17 15 8
8 9 9 9 7 8 8 7 5 7 7 9 7 7 7 8 7 6 5 6 4 6 5 6 7 6 6 8 15 10 7 7 13
9 9 8 9 10 10 8 7 6 7 11 7 8 8 12 12 7 7 6 5 6 4 6 6 7 7 7 9 8 2 4 2 7
8 9 9 9 8 8 8 8 8 8 11 11 8 11 12 10 11 10 8 5 5 5 5 6 7 7 9 9 7 5 8 5 5
9 10 9 9 7 7 10 10 9 10 11 9 9 10 11 11 10 9 7 6 5 5 6 7 7 8 8 9 7 7 11 11 5
9 8 8 6 8 8 12 9 10 12 10 7 10 11 10 9 9 8 5 6 5 10 11 10 11 10 8 7 7 22 22 24 17
13 11 10 11 12 10 9 9 10 14 13 9 11 11 11 9 9 9 5 5 5 5 5 9 9 10 8 6 3 3 10 14 20
Wind_Direction
60 38 35 3 289 182 177 192 182 179 182 185 190 190 192 190 181 193 204 202 207 202 202 206 192 193 188 195 198 196 194 206 219
83 60 50 9 317 295 296 202 200 189 183 185 191 196 196 193 187 191 197 200 209 214 201 198 198 189 192 205 194 193 189 209 214
84 100 110 189 322 325 309 50 164 189 198 209 205 202 196 197 195 196 194 186 202 211 213 204 189 200 195 204 205 192 189 202 215
100 88 100 98 55 22 13 46 176 159 163 170 180 190 204 237 205 198 195 197 203 205 211 205 198 200 203 198 215 207 194 202 209
48 67 92 76 57 70 35 16 26 347 6 321 250 217 140 250 236 210 200 208 206 203 206 210 208 200 197 204 205 203 202 206 213
98 82 59 66 58 59 45 53 16 320 342 319 321 332 339 298 257 221 217 215 213 204 204 208 210 200 204 204 208 204 204 204 207
75 68 96 93 76 66 34 35 23 63 173 265 291 319 284 264 257 230 220 214 212 212 207 204 202 204 203 204 206 207 205 205 206
80 31 31 44 60 81 87 29 23 43 128 227 237 244 273 269 248 237 219 222 214 209 210 211 205 202 200 195 195 200 203 202 203
84 56 30 13 21 93 120 168 60 347 343 194 236 304 307 310 336 266 241 228 213 210 206 207 206 203 198 193 203 200 195 199 205
101 93 35 354 335 326 316 214 222 305 294 298 317 333 323 321 341 322 326 285 232 226 221 208 203 206 199 200 201 193 199 200 208
31 9 350 331 322 316 302 297 309 308 331 326 326 318 314 327 293 276 283 295 312 355 271 219 223 220 204 213 211 199 197 202 210
9 353 324 287 288 285 305 316 306 313 309 310 308 300 300 295 300 314 314 318 306 275 249 229 329 226 115 70 356 350 310 275 242
341 330 312 307 302 297 320 315 330 334 308 312 294 284 274 280 277 264 290 299 317 253 262 241 204 189 116 299 273 237 227 210 242
256 250 272 285 286 268 265 283 297 294 289 283 268 281 289 275 263 263 258 265 201 221 235 247 225 244 247 217 232 218 196 195 207
283 286 288 284 282 275 269 267 255 276 277 266 273 283 283 278 269 248 240 240 242 232 227 207 231 223 240 234 245 238 235 218 226
257 258 262 266 273 273 265 264 258 264 268 262 263 272 281 274 265 268 254 233 242 227 216 215 227 212 223 251 251 133 121 11 265
257 261 262 263 263 262 266 259 253 246 259 264 257 271 269 274 278 269 256 227 229 229 232 234 229 224 234 242 239 129 115 116 80
266 264 262 262 256 263 271 272 261 261 259 249 258 267 265 267 264 264 255 236 218 225 245 234 233 231 227 227 218 172 155 127 100
292 278 277 272 263 260 267 267 271 276 265 241 254 267 263 254 260 259 238 254 261 218 236 266 254 261 227 244 222 167 169 159 139
304 297 285 273 271 264 261 272 273 277 279 261 252 251 256 254 252 257 236 243 222 259 245 231 262 278 266 274 231 271 205 158 146